Regional Weather Roundup
Issued by NWS

Home | Current Version | Previous Version | Text Only | Print | Product List | Glossary Off
Versions: 1 2 3 4 5 6 7 8 9 10 11 12 13 14 15 16 17 18 19 20 21 22 23 24 25 26 27 28 29 30 31 32 33 34 35 36 37 38 39 40 41 42 43 44 45 46 47 48 49 50

000
ASUS43 KLSX 201607
RWRMO

WEATHER SUMMARY FOR MISSOURI
NATIONAL WEATHER SERVICE SPRINGFIELD MO
1100 AM CDT THU JUL 20 2017

NOTE: "FAIR" INDICATES FEW OR NO CLOUDS BELOW 12,000 FEET WITH NO
       SIGNIFICANT WEATHER AND/OR OBSTRUCTIONS TO VISIBILITY.
       CURRENT SKY AND/OR WEATHER CONDITIONS ARE NOT AVAILABLE FOR
       CHILLICOTHE AND FARMINGTON.

MOZ001>031-035>038-043-044-053-054-201700-
...NORTHERN AND WESTERN MISSOURI...

CITY           SKY/WX    TMP DP  RH WIND       PRES   REMARKS
KANSAS CTY INT MOSUNNY   89  75  63 SW13      30.04R HX  99
KANSAS C DTWN  SUNNY     91  73  55 SW12      30.02R HX  99
LEE`S SUMMIT   SUNNY     90  73  57 SW15      30.05F HX  98
ST JOSEPH      SUNNY     88  78  72 S10       30.01R HX 101
CHILLICOTHE      N/A     89  77  67 SW8       30.03S HX 101
KIRKSVILLE     MOSUNNY   88  75  65 W12G18    30.05R HX  97

$$
MOZ066>068-077>081-088>096-101>105-201700-
...SOUTHWEST MISSOURI...

CITY           SKY/WX    TMP DP  RH WIND       PRES   REMARKS
SPRINGFIELD    SUNNY     90  74  59 W14G20    30.13S HX  99
JOPLIN         SUNNY     92  75  57 SW17      30.11S HX 103
BRANSON        MOSUNNY   88  73  62 SW14      30.17R HX  96

$$
MOZ032>034-039>042-045>050-055>058-069>072-201700-
...CENTRAL MISSOURI...

CITY           SKY/WX    TMP DP  RH WIND       PRES   REMARKS
COLUMBIA       SUNNY     91  74  57 SW12      30.08F HX 100
JEFFERSON CITY SUNNY     91  74  57 SW13      30.07F HX 100
ROLLA          SUNNY     87  75  67 SW5       30.12S HX  96
SEDALIA        SUNNY     90  77  65 SW13G21   30.08F HX 103
WHITEMAN AFB   SUNNY     91  74  57 SW15      30.05F HX 101
WARRENSBURG    SUNNY     88  72  58 SW13      30.06S HX  94
OSAGE BEACH    SUNNY     91  74  57 W10       30.11S HX 100

$$
MOZ051-052-059>065-201700-
...EAST CENTRAL MISSOURI...

CITY           SKY/WX    TMP DP  RH WIND       PRES   REMARKS
ST LOUIS INTL  PTSUNNY   94  72  48 W9        30.08F HX 102
SPIRIT OF STL  SUNNY     91  73  55 W8        30.06F HX  99
ST CHARLES     SUNNY     91  73  55 SW7       30.06F HX  99

$$
MOZ072>076-082>087-097>100-106>115-201700-
...SOUTH CENTRAL AND SOUTHEAST MISSOURI...

CITY           SKY/WX    TMP DP  RH WIND       PRES   REMARKS
CAPE GIRARDEAU MOSUNNY   87  76  69 SW7       30.11F HX  97
FARMINGTON     CLOUDY    89  73  59 SW8       30.13F HX  97
POPLAR BLUFF   SUNNY     89  78  70 S5        30.11S HX 103
WEST PLAINS    SUNNY     89  72  56 W9        30.17R HX  96

$$




USA.gov is the U.S. government's official web portal to all federal, state and local government web resources and services.